Aérodrome :







RETROUVEZ-NOUS SUR...

 
LOGIN :

S'inscrire | Disclaimer

   EN    FR    IT 

 









Légende :    VFR   VFR Marginal   IFR   IFR Intensif   IFR Très Intensif
Visi : 
Plafond : 
>= 8 km
>= 3000ft
5 à 8 km
1000 à 3000 ft
1500m à 5 km
500 à 1000 ft
800 à 1500m
200 à 500 ft
< 800m
< 200 ft
Symboles :   Orages  Brouillard  Fortes neiges  Fortes précipitations  Vent > 20 kt






- Altitude de l'aérodrome : 276 ft
- Code IATA : BVB


SBBV - Boa Vista Int.

DERNIER METAR :
  • 230400Z 10005KT CAVOK 28/22 Q1011

METARs EXPIRÉS :
  • 230300Z 09004KT CAVOK 28/22 Q1011
  • 230200Z 08005KT CAVOK 28/22 Q1011

TAF TAF SBBV
Valide du 23 à 00h jusqu'au 24 à 00h UTC


222100Z 2300/2324 12008KT CAVOK TN26/2310Z TX36/2316Z
BECMG 2306/2308 04005KT
BECMG 2310/2312 10015KT FEW015
BECMG 2314/2316 13010KT SCT030 FEW035TCU RMK PGY
FIR SBAZ / Amérique du Sud



MET'MAP, la Météo Aéronautique d'un coup d'oeil ! - Copyright ORBIFLY Décembre 2007 - Disclaimer

ORBIFLY MET'MAP TEAM :

Programmation & Développement : Alexandra Zaïnal
Sur une idée originale de : Baudouin d'Aumeries
Assistance à la programmation : Marc-Olivier Méhu
Soutien technique & logistique : Manuel Goepfert

Contact : metmap@orbifly.com




SOURCES & CREDITS :

   NOAA